Gulkana, AK

1:20 PM AKDT on March 27, 2017 (GMT -0800)
Gulkana

Weather History for PAGK - October, 2012

Change the Weather History Date:

Wednesday, October 3, 2012

  Actual Average Record
Temperature  
Mean Temperature 37 °F -  
Max Temperature 48 °F 43 °F 59 °F (2003)
Min Temperature 26 °F 25 °F 6 °F (2000)
Degree Days  
Heating Degree Days 28    
Moisture  
Dew Point 29 °F    
Average Humidity 67    
Maximum Humidity 92    
Minimum Humidity 33    
Precipitation  
Precipitation 0.00 in - - ()
Sea Level Pressure  
Sea Level Pressure 30.29 in    
Wind  
Wind Speed 9 mph (SSE)    
Max Wind Speed 17 mph    
Max Gust Speed 26 mph    
Visibility 10 miles    
Events Rain    
Averages and records for this station are not official NWS values.
T = Trace of Precipitation, MM = Missing Value Source: NWS Daily Summary

Daily Weather History Graph

Daily Weather History Graph

Search for Another Location

Airport or City:

Trip Planner

Search our weather history database for the weather conditions in past years. The results will help you decide how hot, cold, wet, or windy it might be!

Date:

Astronomy

Oct. 03, 2012 Rise Set
Actual Time 7:56 AM AKDT 7:03 PM AKDT
Civil Twilight 7:11 AM AKDT 7:47 PM AKDT
Nautical Twilight 6:19 AM AKDT 8:39 PM AKDT
Astronomical Twilight 5:24 AM AKDT 9:34 PM AKDT
Moon 7:39 PM AKDT (10/3) 12:48 PM AKDT (10/3)
Length of Visible Light 12h 36m
Length of Day
11h 07m
Waning Gibbous, 88% of the Moon is Illuminated
Oct 3
Waning Gibbous
Oct 7
Last Quarter
Oct 15
New
Oct 21
First Quarter
Oct 29
Full

Hourly Weather History & Observations

Time (AKDT) Temp. Windchill Dew Point Humidity Pressure Visibility Wind Dir Wind Speed Gust Speed Precip Events Conditions
12:53 AM 37.9 °F 30.0 °F 27.0 °F 65% 30.33 in 10.0 mi SE 12.7 mph 21.9 mph N/A   Overcast
1:53 AM 37.9 °F 30.5 °F 27.0 °F 65% 30.32 in 10.0 mi SSE 11.5 mph - N/A   Clear
2:53 AM 35.1 °F 28.6 °F 27.0 °F 72% 30.33 in 10.0 mi SSE 8.1 mph - N/A   Clear
3:53 AM 33.1 °F 28.7 °F 27.0 °F 78% 30.34 in 10.0 mi SSE 4.6 mph - N/A   Clear
4:53 AM 30.9 °F 23.5 °F 27.0 °F 85% 30.34 in 10.0 mi SSE 8.1 mph - N/A   Clear
5:53 AM 32.0 °F 26.4 °F 27.0 °F 82% 30.34 in 10.0 mi SSE 5.8 mph - N/A   Partly Cloudy
6:53 AM 30.0 °F 26.5 °F 26.1 °F 85% 30.35 in 10.0 mi SW 3.5 mph - N/A   Scattered Clouds
7:53 AM 27.0 °F 23.0 °F 25.0 °F 92% 30.36 in 10.0 mi WSW 3.5 mph - N/A   Mostly Cloudy
8:53 AM 27.0 °F - 25.0 °F 92% 30.36 in 10.0 mi Calm Calm - N/A   Scattered Clouds
9:53 AM 36.0 °F - 30.0 °F 79% 30.37 in 10.0 mi Calm Calm - N/A   Scattered Clouds
10:53 AM 37.9 °F - 28.9 °F 70% 30.36 in 10.0 mi Calm Calm - N/A   Scattered Clouds
11:53 AM 39.9 °F - 28.9 °F 65% 30.36 in 10.0 mi Calm Calm - N/A   Scattered Clouds
12:53 PM 42.1 °F 39.2 °F 30.0 °F 62% 30.34 in 10.0 mi SSE 4.6 mph - N/A   Mostly Cloudy
1:53 PM 45.0 °F 40.6 °F 30.0 °F 56% 30.31 in 10.0 mi South 8.1 mph - N/A   Mostly Cloudy
2:53 PM 46.0 °F 39.9 °F 28.9 °F 51% 30.29 in 10.0 mi SSE 13.8 mph 18.4 mph N/A   Mostly Cloudy
3:53 PM 48.0 °F - 28.0 °F 46% 30.26 in 10.0 mi SSE 13.8 mph - N/A   Overcast
4:53 PM 46.9 °F - 27.0 °F 46% 30.25 in 10.0 mi SSE 13.8 mph 19.6 mph N/A   Overcast
5:53 PM 46.9 °F - 28.0 °F 48% 30.24 in 10.0 mi SSE 13.8 mph 21.9 mph N/A   Overcast
6:53 PM 43.0 °F 35.4 °F 33.1 °F 68% 30.26 in 10.0 mi SE 16.1 mph - 0.00 in Rain Light Rain
7:53 PM 42.1 °F 34.5 °F 34.0 °F 73% 30.25 in 10.0 mi SSE 15.0 mph 23.0 mph 0.00 in   Overcast
8:53 PM 43.0 °F 35.1 °F 34.0 °F 71% 30.24 in 10.0 mi SSE 17.3 mph 26.5 mph N/A   Overcast
9:25 PM 42.8 °F 35.8 °F 33.8 °F 70% 30.16 in 10.0 mi SSE 13.8 mph 19.6 mph N/A   Overcast
9:53 PM 44.1 °F 37.7 °F 34.0 °F 68% 30.21 in 10.0 mi SSE 12.7 mph 24.2 mph N/A   Mostly Cloudy
10:53 PM 45.0 °F 39.3 °F 34.0 °F 65% 30.19 in 10.0 mi SSE 11.5 mph 21.9 mph N/A   Mostly Cloudy
11:53 PM 45.0 °F 39.3 °F 34.0 °F 65% 30.18 in 10.0 mi SE 11.5 mph 23.0 mph N/A   Clear